Location: USNO
(38.9242°N, 77.0663°W)
Time: 08:59:10
(UTC-04:00)

OTV 5 (USA 277) - Pass Details

Date: 13 October 2017
Orbit: 404 x 417 km, 43.0° (Epoch: 07 September)

Event Time Altitude Azimuth Distance (km) Brightness Sun altitude
Rises 20:23:45 0° 276° (W) 2,353 ? -22.4°
Reaches altitude 10° 20:25:57 10° 284° (WNW) 1,490 ? -22.9°
Enters shadow 20:28:29 35° 325° (NW) 690 ? -23.4°
